Weather History for Norfolk, VA

Change the Weather History Date:

Wednesday, December 18, 2013

  Actual Average Record
Temperature  
Mean Temperature 40 °F 43 °F  
Max Temperature 47 °F 51 °F 75 °F (1984)
Min Temperature 32 °F 35 °F 17 °F (1875)
Degree Days  
Heating Degree Days 25 22  
Month to date heating degree days 350 350  
Since 1 July heating degree days 881 880  
Cooling Degree Days 0 0  
Month to date cooling degree days 0 0  
Year to date cooling degree days 1754 1628  
Moisture  
Dew Point 30 °F    
Average Humidity 62    
Maximum Humidity 86    
Minimum Humidity 38    
Precipitation  
Precipitation T in 0.11 in 0.83 in (1959)
Month to date precipitation 2.85 1.91  
Year to date precipitation 43.75 45.18  
Snow  
Snow 0.00 in 0.00 in 1.80 in (1981)
Month to date snowfall 0.0 0.4  
Since 1 July snowfall 0.0 0.4  
Snow Depth 0.00 in    
Sea Level Pressure  
Sea Level Pressure 30.15 in    
Wind  
Wind Speed 5 mph (NW)    
Max Wind Speed 18 mph    
Max Gust Speed 26 mph    
Visibility 10 miles    
Events      
T = Trace of Precipitation, MM = Missing Value Source: NWS Daily Summary

Daily Weather History Graph

Daily Weather History Graph

Search for Another Location

Airport:

Trip Planner

Search our weather history database for the weather conditions in past years. The results will help you decide how hot, cold, wet, or windy it might be!

Date:

Astronomy

Dec. 18, 2013 Rise Set
Actual Time 7:12 AM EST 4:50 PM EST
Civil Twilight 6:43 AM EST 5:19 PM EST
Nautical Twilight 6:10 AM EST 5:52 PM EST
Astronomical Twilight 5:39 AM EST 6:23 PM EST
Moon 6:18 PM EST (12/18) 7:52 AM EST (12/18)
Length of Visible Light 10h 36m
Length of Day
9h 38m
Full, 98% of the Moon is Illuminated
Dec 18
Full
Dec 25
Last Quarter
Jan 1
New
Jan 7
First Quarter
Jan 15
Full

Hourly Weather History & Observations

Time (EST) Temp. Windchill Dew Point Humidity Pressure Visibility Wind Dir Wind Speed Gust Speed Precip Events Conditions
12:51 AM 41.0 °F 39.0 °F 37.0 °F 86% 29.95 in 10.0 mi West 3.5 mph - N/A   Overcast
1:51 AM 41.0 °F 37.1 °F 37.0 °F 86% 29.97 in 10.0 mi WSW 5.8 mph - N/A   Scattered Clouds
2:51 AM 42.1 °F 36.6 °F 37.0 °F 82% 30.01 in 10.0 mi West 9.2 mph - N/A   Partly Cloudy
3:51 AM 43.0 °F 38.8 °F 37.9 °F 82% 30.04 in 10.0 mi Variable 6.9 mph 16.1 mph N/A   Overcast
3:58 AM 42.8 °F 35.1 °F 37.4 °F 81% 30.04 in 10.0 mi North 16.1 mph 19.6 mph N/A   Overcast
4:11 AM 41.0 °F 33.5 °F 35.6 °F 81% 30.05 in 10.0 mi North 13.8 mph 19.6 mph N/A   Overcast
4:51 AM 39.0 °F 34.0 °F 35.1 °F 86% 30.07 in 10.0 mi North 6.9 mph - 0.00 in   Mostly Cloudy
5:26 AM 37.4 °F 33.8 °F 35.6 °F 93% 30.09 in 10.0 mi NW 4.6 mph - N/A   Scattered Clouds
5:51 AM 37.9 °F - 34.0 °F 86% 30.10 in 10.0 mi Calm Calm - N/A   Clear
6:12 AM 37.4 °F - 35.6 °F 93% 30.11 in 10.0 mi Calm Calm - N/A   Mostly Cloudy
6:51 AM 37.9 °F 32.7 °F 34.0 °F 86% 30.14 in 10.0 mi NNW 6.9 mph - N/A   Overcast
7:01 AM 37.4 °F 33.8 °F 33.8 °F 87% 30.14 in 10.0 mi NNW 4.6 mph - N/A   Overcast
7:26 AM 37.4 °F 32.8 °F 33.8 °F 87% 30.15 in 10.0 mi NNW 5.8 mph - N/A   Scattered Clouds
7:51 AM 37.0 °F - 33.1 °F 86% 30.16 in 10.0 mi Calm Calm - N/A   Clear
8:51 AM 39.9 °F 35.8 °F 33.1 °F 77% 30.19 in 10.0 mi Variable 5.8 mph - N/A   Clear
9:51 AM 39.9 °F 33.9 °F 32.0 °F 73% 30.22 in 10.0 mi North 9.2 mph 16.1 mph N/A   Clear
10:51 AM 42.1 °F 36.1 °F 30.9 °F 65% 30.21 in 10.0 mi NNW 10.4 mph - N/A   Clear
11:51 AM 42.1 °F 37.7 °F 30.0 °F 62% 30.21 in 10.0 mi North 6.9 mph - N/A   Clear
12:51 PM 43.0 °F 38.2 °F 28.9 °F 58% 30.18 in 10.0 mi NNE 8.1 mph - N/A   Clear
1:51 PM 44.1 °F - 28.9 °F 55% 30.18 in 10.0 mi Calm Calm - N/A   Clear
2:51 PM 46.0 °F 43.9 °F 23.0 °F 40% 30.19 in 10.0 mi Variable 4.6 mph - N/A   Clear
3:51 PM 46.0 °F 43.9 °F 23.0 °F 40% 30.20 in 10.0 mi Variable 4.6 mph - N/A   Clear
4:51 PM 43.0 °F - 23.0 °F 45% 30.22 in 10.0 mi Calm Calm - N/A   Clear
5:51 PM 43.0 °F 41.3 °F 23.0 °F 45% 30.23 in 10.0 mi West 3.5 mph - N/A   Clear
6:51 PM 39.0 °F - 23.0 °F 53% 30.25 in 10.0 mi Calm Calm - N/A   Clear
7:51 PM 39.0 °F 36.8 °F 24.1 °F 55% 30.26 in 10.0 mi WSW 3.5 mph - N/A   Clear
8:51 PM 37.0 °F 34.5 °F 24.1 °F 59% 30.27 in 10.0 mi SW 3.5 mph - N/A   Clear
9:51 PM 34.0 °F 29.8 °F 23.0 °F 64% 30.27 in 10.0 mi SSW 4.6 mph - N/A   Clear
10:51 PM 33.1 °F 28.7 °F 23.0 °F 66% 30.27 in 10.0 mi SSW 4.6 mph - N/A   Clear
11:51 PM 33.1 °F 28.7 °F 23.0 °F 66% 30.27 in 10.0 mi SSW 4.6 mph - N/A   Clear